Location: Naloco
(16.5478°S, 37.1017°E)
Time: 02:05:21
(UTC+00:00)

Nadezhda 3 Rocket - Pass Details

Date: 13 August 2020
Orbit: 956 x 1000 km, 82.9° (Epoch: 23 September)

Event Time Altitude Azimuth Distance (km) Brightness Sun altitude
Rises 15:48:35 0° 12° (NNE) 3,615 7.0 -6.9°
Reaches altitude 10° 15:51:10 10° 18° (NNE) 2,675 6.3 -7.5°
Maximum altitude 15:56:56 44° 89° (E) 1,298 4.3 -8.9°
Drops below altitude 10° 16:02:45 10° 159° (SSE) 2,711 6.0 -10.2°
Sets 16:05:23 0° 165° (SSE) 3,668 6.7 -10.8°
